[Date Prev][Date Next][Thread Prev][Thread Next] - [Date Index][Thread Index][Author Index]
Re: 2 Line ISS Keps 8-1
Thanks Dave. I'm really lazy. I could go online and get these but it's
nice to get them in the mail.
KB7ADL
At 01:17 PM 8/1/03 -0700, "Dave Larsen PhD" <doc@volcano.net> wrote:
>ISS
>1 25544U 98067A 03213.46469907 .00013499 00000-0 16452-3 0 2848
>2 25544 51.6320 152.3987 0008154 76.2850 76.2941 15.60801181268073
----
Via the sarex mailing list at AMSAT.ORG courtesy of AMSAT-NA.
To unsubscribe, send "unsubscribe sarex" to Majordomo@amsat.org
AMSAT Home